TimeEST,TemperatureF,Dew PointF,Humidity,Sea Level PressureIn,VisibilityMPH,Wind Direction,Wind SpeedMPH,Gust SpeedMPH,PrecipitationIn,Events,Conditions,WindDirDegrees,DateUTC
12:53 AM,24.1,17.1,75,30.45,10.0,Calm,Calm,-,N/A,,Clear,0,2013-01-18 05:53:00
1:53 AM,21.9,16.0,78,30.47,10.0,Calm,Calm,-,N/A,,Clear,0,2013-01-18 06:53:00
2:53 AM,21.9,16.0,78,30.49,10.0,Calm,Calm,-,N/A,,Clear,0,2013-01-18 07:53:00
3:53 AM,19.9,15.1,81,30.50,10.0,Calm,Calm,-,N/A,,Clear,0,2013-01-18 08:53:00
4:53 AM,19.0,15.1,85,30.49,10.0,Calm,Calm,-,N/A,,Clear,0,2013-01-18 09:53:00
5:53 AM,18.0,15.1,88,30.50,10.0,Calm,Calm,-,N/A,,Clear,0,2013-01-18 10:53:00
6:53 AM,18.0,15.1,88,30.49,10.0,Calm,Calm,-,N/A,,Clear,0,2013-01-18 11:53:00
7:53 AM,19.0,14.0,81,30.49,9.0,Calm,Calm,-,N/A,,Clear,0,2013-01-18 12:53:00
8:53 AM,19.9,17.1,89,30.51,10.0,Calm,Calm,-,N/A,,Clear,0,2013-01-18 13:53:00
9:53 AM,28.0,19.9,72,30.52,10.0,SSE,4.6,-,N/A,,Clear,160,2013-01-18 14:53:00
10:53 AM,30.0,21.0,69,30.52,10.0,SE,5.8,-,N/A,,Clear,140,2013-01-18 15:53:00
11:53 AM,33.1,19.9,59,30.49,10.0,South,6.9,-,N/A,,Clear,170,2013-01-18 16:53:00
12:53 PM,36.0,19.9,52,30.45,10.0,SSW,10.4,-,N/A,,Clear,210,2013-01-18 17:53:00
1:53 PM,37.9,19.9,48,30.41,10.0,South,12.7,-,N/A,,Clear,180,2013-01-18 18:53:00
2:53 PM,39.9,19.0,43,30.38,10.0,SSW,10.4,-,N/A,,Clear,200,2013-01-18 19:53:00
3:53 PM,41.0,19.0,41,30.35,10.0,SSW,12.7,23.0,N/A,,Clear,200,2013-01-18 20:53:00
4:53 PM,41.0,19.9,43,30.32,10.0,South,11.5,-,N/A,,Clear,190,2013-01-18 21:53:00
5:53 PM,37.9,21.0,51,30.31,10.0,South,9.2,18.4,N/A,,Clear,190,2013-01-18 22:53:00
6:53 PM,37.0,21.9,54,30.30,10.0,South,11.5,-,N/A,,Clear,190,2013-01-18 23:53:00
7:53 PM,37.9,23.0,55,30.28,10.0,South,13.8,21.9,N/A,,Clear,190,2013-01-19 00:53:00
8:53 PM,37.9,24.1,57,30.26,10.0,SSW,15.0,25.3,N/A,,Clear,200,2013-01-19 01:53:00
9:53 PM,39.9,24.1,53,30.24,10.0,SSW,16.1,20.7,N/A,,Clear,200,2013-01-19 02:53:00
10:53 PM,39.9,23.0,51,30.21,10.0,SSW,11.5,-,N/A,,Clear,200,2013-01-19 03:53:00
11:53 PM,42.1,21.0,43,30.20,10.0,SSW,16.1,24.2,N/A,,Clear,210,2013-01-19 04:53:00